When you browse on this site, cookies collect data to enhance your experience and personalize the content and advertising you see.
Visit our Privacy Policy to learn more. By continuing to use the site, you agree to this use of cookies and data.
  • In Sweden
  • List of Countries
  • For 7 days
  • Water Temperature
  • Weather Map
  • Weather Widgets
  • user-avatar
    Login

    Hourly Weather Campo Grande

    Today, 10 April, Friday

    Time Temperature Precipitation Wind Pressure Humidity
    00:00 +19°C° 0 mm 2 mps 710 mmHg 71%
    01:00 +18°C° 0 mm 2 mps 710 mmHg 70%
    02:00 +18°C° 0 mm 2 mps 710 mmHg 69%
    03:00 +17°C° 0 mm 2 mps 710 mmHg 69%
    04:00 +17°C° 0 mm 2 mps 709 mmHg 68%
    05:00 +16°C° 0 mm 2 mps 709 mmHg 67%
    06:00 +18°C° 0 mm 2 mps 710 mmHg 64%
    07:00 +19°C° 0 mm 2 mps 711 mmHg 62%
    08:00 +21°C° 0 mm 2 mps 712 mmHg 59%
    09:00 +23°C° 0 mm 2 mps 712 mmHg 56%
    10:00 +25°C° 0 mm 2 mps 712 mmHg 52%
    11:00 +27°C° 0 mm 1 mps 712 mmHg 49%
    12:00 +28°C° 0 mm 2 mps 711 mmHg 47%
    13:00 +28°C° 0 mm 2 mps 711 mmHg 46%
    14:00 +29°C° 0 mm 2 mps 710 mmHg 44%
    15:00 +27°C° 0 mm 2 mps 710 mmHg 49%
    16:00 +26°C° 0 mm 2 mps 709 mmHg 55%
    17:00 +25°C° 0 mm 2 mps 709 mmHg 61%
    18:00 +23°C° 0 mm 2 mps 709 mmHg 60%
    19:00 +21°C° 0 mm 2 mps 709 mmHg 60%
    20:00 +20°C° 0 mm 2 mps 710 mmHg 59%
    21:00 +20°C° 0 mm 2 mps 710 mmHg 60%
    22:00 +19°C° 0 mm 2 mps 710 mmHg 60%
    23:00 +19°C° 0 mm 2 mps 710 mmHg 61%

    Tomorrow, 11 April, Saturday

    Time Temperature Precipitation Wind Pressure Humidity
    00:00 +18°C° 0 mm 2 mps 709 mmHg 61%
    01:00 +18°C° 0 mm 2 mps 709 mmHg 61%
    02:00 +18°C° 0 mm 2 mps 709 mmHg 62%
    03:00 +17°C° 0 mm 2 mps 709 mmHg 62%
    04:00 +17°C° 0 mm 2 mps 709 mmHg 63%
    05:00 +17°C° 0 mm 2 mps 709 mmHg 63%
    06:00 +18°C° 0 mm 2 mps 710 mmHg 62%
    07:00 +20°C° 0 mm 2 mps 710 mmHg 61%
    08:00 +21°C° 0 mm 2 mps 711 mmHg 60%
    09:00 +24°C° 0 mm 2 mps 711 mmHg 57%
    10:00 +26°C° 0 mm 2 mps 711 mmHg 54%
    11:00 +28°C° 0 mm 1 mps 711 mmHg 51%
    12:00 +29°C° 0 mm 1 mps 711 mmHg 49%
    13:00 +29°C° 0 mm 1 mps 710 mmHg 46%
    14:00 +30°C° 0 mm 1 mps 710 mmHg 43%
    15:00 +29°C° 0 mm 1 mps 710 mmHg 49%
    16:00 +27°C° 0 mm 2 mps 709 mmHg 55%
    17:00 +26°C° 0 mm 2 mps 709 mmHg 61%
    18:00 +25°C° 0 mm 2 mps 709 mmHg 62%
    19:00 +23°C° 0 mm 2 mps 710 mmHg 64%
    20:00 +21°C° 0 mm 2 mps 710 mmHg 65%
    21:00 +21°C° 0 mm 2 mps 710 mmHg 65%
    22:00 +21°C° 0 mm 3 mps 710 mmHg 66%
    23:00 +20°C° 0 mm 3 mps 710 mmHg 67%

    Day after tomorrow, 12 April, Sunday

    Time Temperature Precipitation Wind Pressure Humidity
    00:00 +20°C° 0 mm 3 mps 710 mmHg 68%
    01:00 +20°C° 0 mm 3 mps 710 mmHg 70%
    02:00 +20°C° 0 mm 3 mps 710 mmHg 72%
    03:00 +19°C° 0 mm 3 mps 710 mmHg 75%
    04:00 +19°C° 0 mm 3 mps 710 mmHg 78%
    05:00 +19°C° 0 mm 3 mps 710 mmHg 81%
    06:00 +20°C° 0 mm 3 mps 710 mmHg 78%
    07:00 +22°C° 0 mm 4 mps 711 mmHg 75%
    08:00 +23°C° 0 mm 4 mps 712 mmHg 72%
    09:00 +25°C° 0 mm 4 mps 712 mmHg 67%
    10:00 +27°C° 0 mm 4 mps 712 mmHg 63%
    11:00 +28°C° 0 mm 4 mps 712 mmHg 58%
    12:00 +29°C° 0 mm 3 mps 711 mmHg 56%
    13:00 +29°C° 0 mm 3 mps 710 mmHg 54%
    14:00 +30°C° 0 mm 3 mps 709 mmHg 52%
    15:00 +29°C° 0 mm 2 mps 709 mmHg 57%
    16:00 +28°C° 0 mm 2 mps 709 mmHg 61%
    17:00 +27°C° 0 mm 2 mps 709 mmHg 65%
    18:00 +25°C° 0 mm 3 mps 709 mmHg 67%
    19:00 +24°C° 0 mm 3 mps 709 mmHg 69%
    20:00 +22°C° 0 mm 3 mps 709 mmHg 71%
    21:00 +22°C° 0 mm 4 mps 709 mmHg 73%
    22:00 +21°C° 0 mm 4 mps 709 mmHg 75%
    23:00 +21°C° 0 mm 4 mps 709 mmHg 78%

    13 April, Monday

    Time Temperature Precipitation Wind Pressure Humidity
    00:00 +21°C° 0 mm 4 mps 709 mmHg 78%
    01:00 +20°C° 0 mm 4 mps 709 mmHg 78%
    02:00 +20°C° 0 mm 4 mps 709 mmHg 79%
    03:00 +20°C° 0 mm 4 mps 709 mmHg 79%
    04:00 +20°C° 0 mm 4 mps 709 mmHg 80%
    05:00 +20°C° 0 mm 4 mps 709 mmHg 80%
    06:00 +21°C° 0 mm 4 mps 709 mmHg 78%
    07:00 +22°C° 0 mm 4 mps 710 mmHg 75%
    08:00 +23°C° 0 mm 4 mps 710 mmHg 73%
    09:00 +26°C° 0 mm 4 mps 710 mmHg 68%
    10:00 +28°C° 0 mm 3 mps 710 mmHg 62%
    11:00 +30°C° 0 mm 3 mps 710 mmHg 57%
    12:00 +30°C° 0.1 mm 2 mps 710 mmHg 56%
    13:00 +31°C° 0.1 mm 2 mps 709 mmHg 56%
    14:00 +31°C° 0.1 mm 1 mps 708 mmHg 55%
    15:00 +30°C° 0.1 mm 2 mps 708 mmHg 60%
    16:00 +29°C° 0.1 mm 2 mps 707 mmHg 65%
    17:00 +28°C° 0.1 mm 2 mps 707 mmHg 69%
    18:00 +27°C° 0 mm 2 mps 707 mmHg 72%
    19:00 +26°C° 0 mm 2 mps 707 mmHg 74%
    20:00 +25°C° 0 mm 2 mps 707 mmHg 77%
    21:00 +24°C° 0 mm 2 mps 708 mmHg 78%
    22:00 +24°C° 0 mm 2 mps 708 mmHg 80%
    23:00 +24°C° 0 mm 3 mps 708 mmHg 81%

    14 April, Tuesday

    Time Temperature Precipitation Wind Pressure Humidity
    00:00 +24°C° 0.2 mm 2 mps 707 mmHg 82%
    01:00 +23°C° 0.2 mm 2 mps 707 mmHg 83%
    02:00 +23°C° 0.2 mm 2 mps 707 mmHg 84%
    03:00 +23°C° 1.1 mm 2 mps 707 mmHg 86%
    04:00 +23°C° 1.1 mm 2 mps 707 mmHg 88%
    05:00 +23°C° 1.1 mm 2 mps 707 mmHg 90%
    06:00 +23°C° 0.5 mm 2 mps 708 mmHg 90%
    07:00 +23°C° 0.5 mm 2 mps 708 mmHg 90%
    08:00 +24°C° 0.5 mm 3 mps 709 mmHg 90%
    09:00 +24°C° 2.1 mm 3 mps 709 mmHg 88%
    10:00 +25°C° 2.1 mm 3 mps 709 mmHg 86%
    11:00 +26°C° 2.1 mm 3 mps 709 mmHg 84%
    12:00 +26°C° 1.3 mm 3 mps 708 mmHg 79%
    13:00 +27°C° 1.3 mm 2 mps 708 mmHg 75%
    14:00 +28°C° 1.3 mm 2 mps 707 mmHg 71%
    15:00 +27°C° 0.2 mm 2 mps 707 mmHg 75%
    16:00 +26°C° 0.2 mm 3 mps 707 mmHg 80%
    17:00 +25°C° 0.2 mm 3 mps 707 mmHg 85%
    18:00 +24°C° 0.5 mm 3 mps 708 mmHg 87%
    19:00 +24°C° 0.5 mm 3 mps 708 mmHg 89%
    20:00 +22°C° 0.5 mm 3 mps 709 mmHg 92%
    21:00 +22°C° 0.1 mm 3 mps 709 mmHg 92%
    22:00 +21°C° 0.1 mm 3 mps 709 mmHg 92%
    23:00 +21°C° 0.1 mm 4 mps 709 mmHg 92%

    15 April, Wednesday

    Time Temperature Precipitation Wind Pressure Humidity
    00:00 +21°C° 0 mm 4 mps 709 mmHg 91%
    01:00 +20°C° 0 mm 4 mps 709 mmHg 90%
    02:00 +20°C° 0 mm 5 mps 709 mmHg 88%
    03:00 +19°C° 0 mm 5 mps 709 mmHg 87%
    04:00 +17°C° 0 mm 5 mps 709 mmHg 85%
    05:00 +17°C° 0 mm 5 mps 710 mmHg 83%
    06:00 +17°C° 0 mm 5 mps 710 mmHg 81%
    07:00 +17°C° 0 mm 5 mps 711 mmHg 78%
    08:00 +17°C° 0 mm 5 mps 711 mmHg 75%
    09:00 +20°C° 0 mm 5 mps 712 mmHg 70%
    10:00 +22°C° 0 mm 5 mps 712 mmHg 65%
    11:00 +23°C° 0 mm 4 mps 712 mmHg 61%
    12:00 +25°C° 0 mm 4 mps 711 mmHg 60%
    13:00 +25°C° 0 mm 4 mps 711 mmHg 60%
    14:00 +26°C° 0 mm 4 mps 711 mmHg 59%
    15:00 +25°C° 0 mm 4 mps 710 mmHg 62%
    16:00 +22°C° 0 mm 4 mps 710 mmHg 65%
    17:00 +21°C° 0 mm 3 mps 710 mmHg 68%
    18:00 +20°C° 0 mm 3 mps 711 mmHg 67%
    19:00 +19°C° 0 mm 3 mps 711 mmHg 66%
    20:00 +18°C° 0 mm 3 mps 711 mmHg 66%
    21:00 +17°C° 0 mm 4 mps 711 mmHg 64%
    22:00 +17°C° 0 mm 4 mps 711 mmHg 62%
    23:00 +15°C° 0 mm 4 mps 712 mmHg 61%
    Show more